RH
28 33 35 39 45 43 42 41 41 42 42 40 38 39 38 38 39 42 43 39 37 38 37 33 33 38 41 41 43 45 47 50 55 60 60 60 59 59 65 68 65 60 51 46 46 46 47 46 46 48 49 55 56 52 49 45 44 44 39 38 35 32 32 31 30 30 30 30 30 30 31 32 35 36 35 37 38 40 46 46 42 40 39 38 42 46
29 37 43 45 47 44 41 41 38 36 34 31 33 34 34 38 38 37 39 38 36 37 36 33 33 36 36 38 42 44 47 51 58 64 63 62 60 60 69 76 73 65 55 52 51 49 48 47 48 49 49 52 54 53 51 48 46 45 40 38 35 32 32 30 29 29 29 29 30 30 32 33 35 37 36 37 40 42 43 43 41 41 42 42 43 46
38 45 47 44 45 41 36 33 30 29 26 25 32 35 36 39 37 37 39 37 36 39 39 36 35 33 31 37 45 45 47 55 61 64 64 63 62 60 68 80 80 71 63 58 54 51 47 45 46 49 50 50 51 52 52 49 48 44 40 37 34 31 31 29 28 28 27 27 28 29 31 32 34 37 39 37 40 45 41 36 36 38 42 45 45 45
49 51 47 43 42 36 32 32 30 27 25 26 30 32 37 39 37 41 43 37 36 38 39 38 34 31 31 37 47 49 52 60 64 64 64 66 66 63 66 76 81 77 71 64 56 52 49 45 46 49 50 49 49 51 53 51 49 44 39 37 33 30 29 28 28 27 26 26 27 27 28 31 32 35 38 38 38 41 38 33 33 36 41 45 45 47
45 47 44 41 37 30 30 33 34 33 31 31 30 30 37 38 35 37 37 32 31 32 34 34 34 37 40 43 50 55 59 64 64 64 66 70 71 66 64 72 79 79 77 71 61 54 50 46 46 48 48 48 50 53 54 53 50 43 38 35 31 29 28 27 27 26 25 26 26 27 27 29 30 32 36 38 37 37 36 34 34 36 41 44 47 52
41 42 41 38 32 31 33 34 35 36 33 33 34 34 36 36 34 32 28 25 24 26 29 31 36 44 46 45 49 57 66 69 67 65 65 70 73 67 63 66 74 81 82 76 67 57 52 49 47 47 46 48 51 55 55 54 51 43 38 35 31 29 27 26 26 26 25 25 26 27 28 29 29 31 34 37 38 37 36 36 36 38 41 44 50 56
40 36 35 33 31 33 37 36 35 36 35 34 33 35 37 35 34 31 26 23 23 26 29 29 35 44 44 42 47 56 64 67 67 66 63 65 67 66 65 64 69 82 86 79 70 63 57 53 50 48 47 48 53 56 56 55 49 42 37 35 31 29 28 27 27 26 26 26 26 27 28 29 29 31 34 37 39 39 37 37 38 41 43 48 57 57
39 36 32 30 31 33 36 38 40 39 37 34 31 33 35 33 32 30 26 24 24 25 27 29 35 41 42 41 45 49 55 59 61 62 64 67 71 73 73 68 65 76 83 78 72 67 63 57 52 49 46 48 52 54 56 54 47 41 38 35 31 29 28 28 28 27 27 27 27 28 28 29 29 30 32 35 38 38 37 38 41 45 47 52 60 59
36 36 33 29 31 35 38 41 42 40 37 34 31 29 28 28 28 27 26 25 25 24 28 35 39 41 41 42 43 44 51 59 60 63 69 73 76 76 74 73 70 72 76 75 73 71 67 59 52 50 47 48 51 53 56 53 45 41 39 34 30 28 28 28 29 29 28 28 28 29 29 29 29 29 32 35 38 37 37 41 46 49 52 56 60 61
34 33 29 28 33 36 37 38 37 36 35 32 30 27 26 29 29 32 35 33 33 34 35 39 42 45 44 42 42 44 52 60 58 61 65 66 70 70 69 73 72 70 71 75 78 76 69 60 53 51 49 50 52 55 56 51 45 43 39 32 28 26 27 28 28 28 28 28 29 30 30 29 29 29 32 35 37 36 37 44 50 50 53 60 63 65
36 33 30 30 34 33 32 33 33 34 34 33 31 30 32 35 35 38 41 40 40 41 41 41 45 50 47 42 45 49 53 55 56 59 58 56 62 65 64 68 69 69 70 74 79 76 68 60 55 52 51 53 56 58 55 48 45 43 37 30 26 25 26 27 27 27 26 27 27 29 30 29 29 29 30 34 36 36 37 43 50 52 54 59 64 67
40 41 39 36 34 31 30 32 33 35 37 39 39 39 41 41 41 43 45 46 46 45 47 49 50 51 47 43 47 51 51 53 58 60 56 52 54 57 60 64 67 69 69 73 77 73 66 62 59 56 53 55 60 59 52 47 45 41 33 28 25 26 27 27 27 27 26 26 27 28 27 28 28 28 29 32 35 35 37 42 49 55 55 57 62 66
48 47 44 41 39 34 34 36 37 39 41 44 43 42 43 42 41 44 46 48 47 45 46 48 49 48 44 43 45 47 50 54 56 52 49 50 52 55 59 63 66 68 70 75 76 70 66 65 61 58 57 58 60 56 49 47 44 38 30 26 26 27 28 28 27 27 27 27 28 27 27 27 27 27 27 29 33 34 37 45 50 53 55 56 60 66
51 50 46 46 45 39 36 38 39 39 38 40 39 38 39 38 39 43 43 42 42 42 42 44 45 41 42 48 46 43 46 49 49 46 44 48 52 55 59 63 65 66 68 70 70 65 63 64 63 60 60 59 56 52 48 45 40 34 28 26 27 27 28 28 27 27 28 28 28 28 28 29 27 26 27 28 31 33 38 45 49 52 55 56 59 65
49 52 52 50 48 42 38 37 35 32 31 35 37 38 39 38 42 48 45 40 39 39 39 39 36 34 42 51 46 42 45 47 49 48 46 49 53 57 60 63 65 65 65 65 64 63 61 63 64 61 59 57 53 49 45 39 34 30 27 27 27 28 28 28 27 27 28 29 29 29 29 30 28 26 26 27 29 31 36 41 45 51 56 57 57 62
46 51 50 47 44 40 38 36 32 30 35 40 39 40 41 39 42 45 42 39 33 30 32 31 30 34 41 44 42 43 48 50 52 53 53 52 52 57 62 64 67 66 64 64 63 63 64 63 62 59 56 53 49 44 38 33 31 28 27 26 27 28 27 27 27 26 28 29 29 30 31 30 30 27 26 27 27 29 33 37 43 50 55 57 57 59
45 48 47 45 44 40 37 35 31 31 37 41 39 40 42 38 37 37 36 35 31 31 35 35 37 43 45 43 45 50 51 51 54 57 61 58 52 56 63 65 66 63 61 62 62 63 65 64 62 59 54 49 45 40 34 31 30 28 26 26 27 27 26 26 27 26 27 30 30 32 33 31 29 28 28 28 27 27 30 34 43 49 52 56 58 57
40 43 45 44 45 43 39 36 33 33 37 41 42 41 37 32 34 35 34 34 32 33 38 38 39 44 47 48 50 53 53 51 54 57 62 64 58 55 58 58 59 60 60 61 59 59 61 62 63 61 56 51 44 38 34 31 29 27 27 26 27 27 26 26 28 26 27 30 31 32 34 32 30 29 28 29 29 28 28 32 41 46 48 53 57 56
37 42 46 44 45 45 41 41 43 44 42 43 45 43 37 36 39 37 35 35 34 34 36 37 40 44 45 46 51 55 53 50 54 56 58 62 62 57 55 54 55 59 62 60 56 54 54 54 57 57 56 52 43 40 40 35 29 27 27 27 27 27 27 28 29 27 28 31 32 33 34 33 32 30 29 29 31 30 29 31 38 43 45 48 53 56
38 43 47 46 47 47 46 48 53 56 52 47 49 48 44 46 47 41 37 37 37 40 41 37 40 47 44 44 50 53 48 44 47 52 54 58 58 54 52 52 51 52 53 52 50 49 50 51 51 52 50 45 42 45 45 37 30 29 29 28 28 28 28 29 30 29 30 33 34 33 34 34 32 31 31 31 32 31 30 30 34 39 43 44 46 51
41 43 46 47 47 51 58 59 56 55 51 49 52 53 50 50 50 45 41 43 45 47 46 40 41 48 46 45 49 48 45 41 39 43 50 56 57 55 53 52 48 45 42 42 42 43 44 46 46 45 42 42 47 51 48 37 31 31 31 30 30 30 31 31 30 31 32 34 35 34 35 35 34 32 32 32 32 32 32 31 33 36 39 42 43 46
42 41 43 46 48 56 63 60 52 48 46 45 47 50 51 50 51 48 44 48 51 46 44 45 47 50 48 46 48 47 47 45 38 38 43 47 50 52 51 48 44 41 39 40 40 39 40 41 43 42 41 44 48 49 47 37 30 29 31 31 32 32 32 32 31 31 32 34 35 35 35 35 35 34 33 33 33 34 33 32 33 34 37 40 42 43
41 40 44 50 56 63 62 53 50 50 49 48 46 48 51 51 54 54 50 50 49 41 39 43 47 52 52 48 48 49 50 47 39 35 36 37 41 46 48 46 42 38 38 39 39 40 40 42 45 44 43 46 47 47 45 37 29 28 29 30 31 31 30 30 31 32 32 34 36 37 35 35 36 36 35 36 37 36 35 33 33 33 34 37 39 41
41 42 48 52 56 63 63 59 58 56 55 55 55 53 54 56 58 58 54 50 46 43 44 44 47 53 52 49 50 51 52 49 40 33 32 34 40 46 47 43 39 37 37 39 41 42 43 44 47 48 49 51 51 51 49 41 33 30 30 31 31 29 28 28 29 30 30 32 36 37 36 36 36 36 37 39 40 39 38 36 33 32 32 34 36 39
39 42 48 52 57 64 68 68 65 62 60 58 57 57 56 58 60 56 53 50 46 48 51 50 50 52 52 53 56 53 51 50 45 37 33 33 36 41 41 38 37 37 37 40 42 44 45 46 47 49 49 49 49 48 46 41 35 32 33 35 33 30 29 28 29 30 30 32 36 38 38 38 37 37 38 40 42 42 41 40 37 34 32 31 34 36
38 41 47 54 61 64 68 71 65 58 57 55 53 55 54 55 57 55 54 52 48 50 53 50 48 49 50 53 54 52 50 49 46 41 36 33 34 35 36 35 36 37 37 39 41 42 44 45 46 46 45 44 43 40 40 40 35 31 33 36 35 33 31 29 31 32 31 32 36 39 40 39 39 41 42 42 43 44 43 43 42 39 35 32 32 33
40 43 49 57 63 61 62 67 62 55 56 55 54 55 54 54 57 57 56 53 51 52 51 48 48 50 53 54 52 51 50 49 48 45 40 36 34 34 35 35 35 36 36 37 38 39 42 43 44 45 45 44 42 39 42 46 39 32 33 35 35 35 34 32 33 33 31 31 36 41 41 42 44 45 46 46 46 46 44 44 44 43 40 35 32 32
42 46 50 55 59 58 58 60 59 57 57 57 57 59 58 56 58 60 58 54 53 51 47 45 50 55 57 55 52 51 52 51 50 46 41 37 34 34 34 35 35 35 36 36 37 38 41 43 44 47 48 47 43 40 44 46 39 34 36 36 35 37 38 37 36 36 34 31 35 42 43 44 47 47 47 48 48 48 47 47 46 44 42 39 36 34
47 49 50 52 55 56 56 57 57 58 59 59 59 62 62 60 61 62 58 53 54 54 51 46 47 50 50 47 46 48 51 52 48 43 39 36 34 35 35 34 35 36 36 37 36 38 41 43 45 47 47 45 44 43 43 41 37 37 39 38 37 40 42 42 40 40 39 35 36 43 46 47 48 47 47 48 48 49 49 49 48 45 44 45 43 41
52 53 52 52 55 55 57 61 62 59 60 62 61 60 62 63 64 65 60 56 55 56 53 49 46 45 43 41 44 48 50 50 47 44 41 36 34 35 34 33 35 36 36 36 36 38 40 43 46 49 48 46 45 44 41 38 37 40 40 39 40 42 45 46 43 42 41 38 38 45 49 48 48 47 47 47 49 49 49 49 49 48 48 49 48 46
55 58 57 57 60 59 60 66 67 61 60 64 65 64 65 67 67 67 64 59 56 54 51 49 47 44 40 42 48 53 53 51 47 45 44 41 40 39 36 35 35 36 37 36 36 38 40 42 45 50 51 47 42 41 40 39 40 41 41 40 41 45 47 45 43 43 42 39 40 47 51 50 49 48 48 49 50 50 51 52 52 51 51 51 50 49
54 58 61 65 67 61 58 61 64 63 62 63 67 72 74 71 67 65 62 58 56 55 52 48 45 44 47 53 59 59 56 52 50 50 50 48 46 43 38 36 36 37 36 35 36 37 40 43 47 50 50 44 39 40 41 41 42 42 40 39 40 44 45 43 42 45 44 42 44 50 52 52 50 49 50 52 52 53 55 56 55 55 55 54 53 52
51 54 57 64 68 63 57 57 62 68 67 62 64 70 73 70 65 61 58 56 57 56 53 48 46 49 56 59 60 60 59 57 56 56 53 50 46 43 38 35 36 37 36 36 36 37 40 44 48 48 45 39 37 40 42 41 41 40 36 34 36 41 44 43 43 45 46 45 49 52 54 54 53 52 53 54 54 56 57 57 56 56 57 57 57 56
46 51 55 62 66 65 61 59 62 70 71 68 70 72 70 65 65 63 59 58 60 59 56 52 49 50 54 55 56 60 63 62 61 58 53 48 44 41 38 36 36 36 35 36 38 38 40 42 43 41 38 38 39 40 40 40 38 35 31 30 34 40 44 44 43 46 49 49 51 54 55 55 55 54 55 55 56 58 59 57 56 56 57 58 59 60
44 48 53 59 63 62 61 60 62 65 65 68 74 76 67 61 62 63 61 61 62 62 62 62 59 58 57 57 58 60 61 63 63 59 54 48 42 39 38 36 35 34 33 35 37 38 39 39 39 37 36 38 39 38 39 38 34 30 26 27 33 40 44 44 44 48 51 52 53 55 54 54 55 56 57 57 57 59 59 58 57 56 58 60 61 62
45 46 49 55 59 59 58 60 64 64 63 65 70 69 64 63 66 65 61 60 58 59 62 65 66 64 62 60 60 59 60 62 60 55 53 51 48 46 43 38 34 32 32 32 32 33 34 36 36 35 33 35 38 39 38 35 30 26 23 25 32 38 40 41 44 48 52 53 54 55 54 56 57 58 59 59 57 58 59 59 60 60 61 63 64 64
47 51 55 57 58 59 60 60 59 61 63 66 68 65 62 65 67 64 61 60 57 56 60 63 64 63 61 60 59 58 57 55 53 50 52 55 55 51 45 38 33 30 30 30 29 28 30 33 34 32 31 34 38 40 37 31 27 25 23 26 32 36 37 39 43 47 51 53 55 56 56 58 59 60 61 61 59 59 61 63 65 66 67 67 67 66
47 51 58 61 57 55 58 59 58 60 63 64 65 63 61 65 64 60 60 61 58 58 61 63 64 64 63 60 58 55 52 50 51 52 54 57 56 50 43 37 31 29 29 29 29 28 28 30 32 31 30 34 38 39 35 29 26 25 24 26 31 34 35 38 41 46 49 52 55 58 58 59 60 61 62 62 62 63 65 67 68 70 71 70 68 67
54 54 56 58 55 53 57 60 62 64 64 65 66 64 62 65 65 62 62 63 61 61 63 65 67 66 64 61 57 54 53 51 53 56 58 59 56 47 39 33 30 28 30 30 28 27 27 29 30 30 29 32 37 38 34 29 26 25 24 25 29 32 33 36 38 41 45 50 53 57 61 63 64 65 66 66 65 66 67 67 67 70 71 69 67 67
56 59 59 59 57 57 59 61 62 62 61 62 64 63 62 64 64 64 65 65 63 63 65 67 69 67 64 62 59 56 54 54 57 60 59 54 48 39 32 30 29 29 30 30 28 28 27 27 28 29 29 30 33 35 34 29 26 25 25 25 28 31 32 32 33 34 39 44 49 54 59 64 67 69 70 69 67 67 66 64 64 67 69 67 66 66
50 54 59 62 60 58 60 61 60 62 64 64 63 62 62 65 66 65 65 65 64 65 67 67 68 67 65 64 62 60 57 56 57 57 52 46 40 35 30 29 30 30 30 29 28 29 28 27 27 28 28 28 30 32 33 30 26 24 24 25 26 28 29 29 30 30 32 35 41 49 54 58 61 64 66 66 64 63 62 61 62 65 66 66 65 65
47 51 55 58 59 59 60 61 60 62 66 66 62 62 63 67 70 67 64 64 65 66 67 67 66 68 69 66 64 64 63 61 57 54 50 45 40 36 33 30 30 31 31 29 29 30 28 27 27 27 26 27 28 29 30 30 28 25 23 24 25 26 26 27 27 27 27 26 30 37 44 48 52 55 57 58 59 59 58 58 59 62 63 63 64 64
48 50 51 53 57 58 59 62 62 63 66 63 60 62 64 68 73 71 67 67 68 66 67 66 65 70 72 69 66 66 66 65 63 60 57 53 45 39 34 32 31 31 31 30 31 31 29 27 27 26 25 25 27 27 28 29 27 25 23 23 23 23 23 24 23 23 23 23 22 24 29 35 40 44 47 49 51 52 53 53 54 55 57 58 60 60
45 47 49 53 58 59 61 63 64 64 63 59 58 61 61 63 71 73 69 67 67 66 66 66 66 71 74 71 68 68 67 67 66 64 62 60 54 46 38 34 32 32 31 30 31 31 29 28 27 26 24 23 24 25 26 27 26 24 23 21 22 22 22 22 22 22 23 23 20 20 21 23 26 31 36 40 43 46 48 49 50 51 52 53 55 56
42 43 47 51 56 59 60 61 59 57 56 55 56 58 57 58 64 67 65 64 66 65 65 66 67 71 75 73 69 68 69 69 68 66 65 64 60 54 45 36 34 33 31 30 31 31 30 29 27 26 23 21 22 23 24 25 24 23 22 21 19 19 19 19 21 23 23 24 22 21 21 20 20 22 25 29 34 38 42 44 45 46 48 49 49 50
43 44 45 46 49 52 53 54 54 53 53 54 54 53 53 54 57 59 59 63 65 63 64 68 70 71 72 71 68 67 69 71 70 67 66 66 64 59 51 40 35 33 32 31 31 32 32 30 28 26 24 21 21 21 22 23 22 22 23 23 20 19 18 18 19 21 22 24 25 24 22 21 21 20 19 20 24 27 31 33 32 34 39 44 45 45
45 47 47 45 46 48 49 50 50 50 50 49 48 48 49 51 53 55 58 64 67 65 64 67 70 71 72 70 67 66 69 73 73 69 67 67 66 62 55 45 38 34 33 33 33 31 32 32 30 27 25 22 21 20 21 22 22 23 24 24 23 21 20 18 18 19 20 22 24 25 25 23 22 22 19 16 17 18 22 24 21 16 21 29 34 37
44 45 43 42 42 44 45 45 46 47 46 46 47 51 53 53 53 54 55 60 66 67 64 62 64 70 75 74 70 67 68 73 76 73 69 69 68 65 59 50 41 36 34 35 34 32 32 33 32 29 26 24 22 20 20 21 22 23 24 25 25 24 23 21 19 18 19 20 21 23 25 24 23 23 22 19 15 12 14 18 15 9 9 14 18 22
41 42 41 40 41 42 42 45 47 46 45 45 47 50 51 49 50 51 51 55 59 62 64 63 62 66 72 72 70 67 66 70 76 76 71 70 70 67 62 53 44 38 37 36 34 33 33 34 34 31 28 25 23 21 21 21 22 23 24 24 24 25 25 24 21 20 20 20 19 19 22 23 23 23 25 25 21 15 11 11 10 8 8 9 9 11
40 42 42 41 42 41 42 45 47 47 46 44 44 47 47 45 44 46 48 50 52 54 58 62 61 61 64 65 65 66 67 69 74 77 75 72 71 69 64 55 47 42 39 37 35 34 34 35 35 33 30 27 25 23 22 21 21 22 23 22 23 24 25 24 24 24 22 20 18 16 18 20 21 21 23 24 24 22 19 15 11 9 9 10 9 9
41 44 42 39 38 37 38 40 42 44 46 45 44 45 46 44 45 46 45 44 45 48 52 55 58 62 65 62 60 62 65 67 70 75 76 74 72 71 66 57 49 44 42 39 36 35 35 36 36 35 33 30 27 26 24 22 22 22 23 22 22 23 23 24 25 25 22 21 20 17 16 17 18 18 19 21 22 23 24 23 19 14 10 10 10 10